When you browse on this site, cookies collect data to enhance your experience and personalize the content and advertising you see.
Visit our Privacy Policy to learn more. By continuing to use the site, you agree to this use of cookies and data.

Tiempo cada hora Los Andes

Hoy, 14 Agosto, Viernes

Tiempo Temperatura Precipitaciones Viento Presión Humedad
00:00 +8°C° 0 mm 1 mps 687 mmHg 71%
01:00 +8°C° 0 mm 1 mps 687 mmHg 72%
02:00 +8°C° 0 mm 1 mps 688 mmHg 72%
03:00 +8°C° 0 mm 1 mps 688 mmHg 72%
04:00 +8°C° 0 mm 1 mps 688 mmHg 73%
05:00 +8°C° 0 mm 1 mps 688 mmHg 75%
06:00 +8°C° 0 mm 1 mps 689 mmHg 77%
07:00 +7°C° 0 mm 0 mps 689 mmHg 79%
08:00 +9°C° 0 mm 1 mps 689 mmHg 74%
09:00 +10°C° 0 mm 1 mps 690 mmHg 69%
10:00 +12°C° 0 mm 1 mps 690 mmHg 65%
11:00 +12°C° 0 mm 1 mps 690 mmHg 63%
12:00 +13°C° 0 mm 2 mps 689 mmHg 61%
13:00 +13°C° 0 mm 2 mps 689 mmHg 60%
14:00 +13°C° 0 mm 2 mps 689 mmHg 62%
15:00 +13°C° 0 mm 2 mps 689 mmHg 64%
16:00 +13°C° 0 mm 2 mps 689 mmHg 66%
17:00 +12°C° 0 mm 2 mps 690 mmHg 69%
18:00 +10°C° 0 mm 1 mps 690 mmHg 72%
19:00 +9°C° 0 mm 1 mps 691 mmHg 75%
20:00 +9°C° 0 mm 1 mps 690 mmHg 74%
21:00 +8°C° 0 mm 1 mps 690 mmHg 73%
22:00 +8°C° 0 mm 1 mps 690 mmHg 72%
23:00 +8°C° 0 mm 1 mps 689 mmHg 71%

Mañana, 15 Agosto, Sábado

Tiempo Temperatura Precipitaciones Viento Presión Humedad
00:00 +7°C° 0 mm 1 mps 689 mmHg 70%
01:00 +7°C° 0 mm 1 mps 689 mmHg 69%
02:00 +7°C° 0 mm 1 mps 689 mmHg 68%
03:00 +7°C° 0 mm 1 mps 689 mmHg 68%
04:00 +6°C° 0 mm 1 mps 689 mmHg 67%
05:00 +7°C° 0 mm 1 mps 689 mmHg 66%
06:00 +7°C° 0 mm 1 mps 689 mmHg 64%
07:00 +8°C° 0 mm 1 mps 689 mmHg 63%
08:00 +9°C° 0 mm 1 mps 689 mmHg 57%
09:00 +11°C° 0 mm 1 mps 689 mmHg 51%
10:00 +13°C° 0 mm 1 mps 690 mmHg 46%
11:00 +14°C° 0 mm 1 mps 690 mmHg 44%
12:00 +15°C° 0 mm 2 mps 690 mmHg 43%
13:00 +16°C° 0 mm 2 mps 689 mmHg 41%
14:00 +15°C° 0 mm 2 mps 689 mmHg 44%
15:00 +15°C° 0 mm 2 mps 689 mmHg 46%
16:00 +15°C° 0 mm 1 mps 689 mmHg 49%
17:00 +13°C° 0 mm 1 mps 690 mmHg 51%
18:00 +11°C° 0 mm 1 mps 690 mmHg 53%
19:00 +10°C° 0 mm 1 mps 690 mmHg 55%
20:00 +10°C° 0 mm 1 mps 690 mmHg 54%
21:00 +8°C° 0 mm 2 mps 690 mmHg 54%
22:00 +8°C° 0 mm 2 mps 690 mmHg 53%
23:00 +9°C° 0 mm 1 mps 690 mmHg 51%

Pasado mañana, 16 Agosto, Domingo

Tiempo Temperatura Precipitaciones Viento Presión Humedad
00:00 +9°C° 0 mm 1 mps 690 mmHg 50%
01:00 +8°C° 0 mm 1 mps 690 mmHg 49%
02:00 +8°C° 0 mm 1 mps 689 mmHg 47%
03:00 +8°C° 0 mm 1 mps 689 mmHg 46%
04:00 +8°C° 0 mm 1 mps 688 mmHg 44%
05:00 +8°C° 0 mm 1 mps 689 mmHg 44%
06:00 +9°C° 0 mm 1 mps 689 mmHg 43%
07:00 +9°C° 0 mm 1 mps 689 mmHg 43%
08:00 +11°C° 0 mm 1 mps 689 mmHg 39%
09:00 +14°C° 0 mm 1 mps 690 mmHg 34%
10:00 +16°C° 0 mm 1 mps 690 mmHg 30%
11:00 +18°C° 0 mm 1 mps 690 mmHg 29%
12:00 +18°C° 0 mm 1 mps 690 mmHg 28%
13:00 +18°C° 0 mm 2 mps 690 mmHg 27%
14:00 +18°C° 0 mm 2 mps 690 mmHg 30%
15:00 +17°C° 0 mm 2 mps 689 mmHg 33%
16:00 +18°C° 0 mm 1 mps 689 mmHg 36%
17:00 +15°C° 0 mm 1 mps 689 mmHg 39%
18:00 +13°C° 0 mm 1 mps 689 mmHg 43%
19:00 +11°C° 0 mm 1 mps 689 mmHg 47%
20:00 +11°C° 0 mm 1 mps 689 mmHg 46%
21:00 +10°C° 0 mm 1 mps 689 mmHg 46%
22:00 +10°C° 0 mm 1 mps 689 mmHg 45%
23:00 +10°C° 0 mm 1 mps 689 mmHg 45%

17 Agosto, Lunes

Tiempo Temperatura Precipitaciones Viento Presión Humedad
00:00 +9°C° 0 mm 1 mps 689 mmHg 45%
01:00 +9°C° 0 mm 1 mps 688 mmHg 45%
02:00 +9°C° 0 mm 1 mps 688 mmHg 44%
03:00 +9°C° 0 mm 1 mps 688 mmHg 43%
04:00 +8°C° 0 mm 1 mps 688 mmHg 42%
05:00 +9°C° 0 mm 1 mps 688 mmHg 42%
06:00 +9°C° 0 mm 1 mps 688 mmHg 41%
07:00 +10°C° 0 mm 1 mps 688 mmHg 40%
08:00 +12°C° 0 mm 1 mps 689 mmHg 35%
09:00 +15°C° 0 mm 1 mps 689 mmHg 30%
10:00 +18°C° 0 mm 1 mps 689 mmHg 26%
11:00 +18°C° 0 mm 1 mps 689 mmHg 28%
12:00 +18°C° 0 mm 2 mps 689 mmHg 30%
13:00 +18°C° 0 mm 2 mps 688 mmHg 32%
14:00 +17°C° 0 mm 2 mps 688 mmHg 37%
15:00 +17°C° 0 mm 2 mps 688 mmHg 43%
16:00 +16°C° 0 mm 2 mps 688 mmHg 49%
17:00 +14°C° 0 mm 1 mps 688 mmHg 58%
18:00 +12°C° 0 mm 1 mps 688 mmHg 66%
19:00 +10°C° 0 mm 0 mps 688 mmHg 75%
20:00 +9°C° 0 mm 0 mps 688 mmHg 77%
21:00 +9°C° 0 mm 0 mps 688 mmHg 80%
22:00 +8°C° 0 mm 0 mps 688 mmHg 82%
23:00 +8°C° 0 mm 0 mps 688 mmHg 84%

18 Agosto, Martes

Tiempo Temperatura Precipitaciones Viento Presión Humedad
00:00 +7°C° 0 mm 0 mps 688 mmHg 85%
01:00 +7°C° 0 mm 0 mps 688 mmHg 87%
02:00 +7°C° 0 mm 0 mps 688 mmHg 88%
03:00 +7°C° 0 mm 0 mps 687 mmHg 89%
04:00 +6°C° 0 mm 0 mps 687 mmHg 91%
05:00 +7°C° 0.1 mm 0 mps 688 mmHg 90%
06:00 +7°C° 0.1 mm 0 mps 688 mmHg 88%
07:00 +7°C° 0.1 mm 0 mps 689 mmHg 87%
08:00 +9°C° 0.1 mm 1 mps 689 mmHg 83%
09:00 +10°C° 0.1 mm 1 mps 689 mmHg 79%
10:00 +10°C° 0.1 mm 2 mps 689 mmHg 75%
11:00 +10°C° 0.3 mm 2 mps 689 mmHg 74%
12:00 +10°C° 0.3 mm 2 mps 689 mmHg 72%
13:00 +11°C° 0.3 mm 3 mps 689 mmHg 71%
14:00 +10°C° 0.4 mm 3 mps 689 mmHg 73%
15:00 +9°C° 0.4 mm 3 mps 689 mmHg 76%
16:00 +9°C° 0.4 mm 3 mps 689 mmHg 79%
17:00 +8°C° 0.2 mm 2 mps 690 mmHg 82%
18:00 +9°C° 0.2 mm 1 mps 690 mmHg 85%
19:00 +8°C° 0.2 mm 1 mps 691 mmHg 88%
20:00 +8°C° 0 mm 1 mps 691 mmHg 89%
21:00 +7°C° 0 mm 1 mps 691 mmHg 90%
22:00 +7°C° 0 mm 1 mps 692 mmHg 90%
23:00 +7°C° 0 mm 1 mps 692 mmHg 90%

19 Agosto, Miércoles

Tiempo Temperatura Precipitaciones Viento Presión Humedad
00:00 +7°C° 0 mm 1 mps 692 mmHg 90%
01:00 +7°C° 0 mm 1 mps 692 mmHg 90%
02:00 +6°C° 0 mm 1 mps 692 mmHg 90%
03:00 +6°C° 0 mm 1 mps 692 mmHg 89%
04:00 +6°C° 0 mm 1 mps 692 mmHg 88%
05:00 +6°C° 0 mm 1 mps 692 mmHg 86%
06:00 +6°C° 0 mm 1 mps 693 mmHg 85%
07:00 +6°C° 0 mm 1 mps 693 mmHg 84%
08:00 +7°C° 0 mm 1 mps 693 mmHg 79%
09:00 +8°C° 0 mm 1 mps 693 mmHg 75%
10:00 +9°C° 0 mm 1 mps 693 mmHg 71%
11:00 +8°C° 0 mm 2 mps 693 mmHg 68%
12:00 +9°C° 0 mm 2 mps 692 mmHg 65%
13:00 +10°C° 0 mm 2 mps 692 mmHg 63%
14:00 +10°C° 0 mm 2 mps 692 mmHg 63%
15:00 +10°C° 0 mm 2 mps 693 mmHg 63%
16:00 +10°C° 0 mm 2 mps 693 mmHg 64%
17:00 +10°C° 0 mm 1 mps 693 mmHg 67%
18:00 +9°C° 0 mm 1 mps 693 mmHg 69%
19:00 +8°C° 0 mm 1 mps 694 mmHg 72%
20:00 +7°C° 0 mm 1 mps 694 mmHg 68%
21:00 +7°C° 0 mm 1 mps 694 mmHg 65%
22:00 +6°C° 0 mm 2 mps 694 mmHg 61%
23:00 +7°C° 0 mm 1 mps 694 mmHg 58%
Mostrar más